Location: Schommer Observatory
(40.5200°N, 74.4500°W)
Time: 01:28:42
(UTC-05:00)

Envisat - Pass Details

Date: 12 October 2017
Orbit: 764 x 766 km, 98.2° (Epoch: 14 December)

Event Time Altitude Azimuth Distance (km) Brightness Sun altitude
Exits shadow 19:53:50 28° 64° (ENE) 1,405 3.9 -18.3°
Drops below altitude 10° 19:57:59 10° 10° (N) 2,313 5.4 -19.0°
Sets 20:00:34 0° 359° (N) 3,244 6.3 -19.5°
